Left ArrowRight Arrow

Hourly Observations for June 16, 2024

Temp ( °F °C ) Dew Point ( °F °C ) Humidity (%) Winds ( mph kmh ) Pressure ( in mb ) Visibility ( mi km ) Precip ( " mm )
12:53 am 00:53 Clear 87 30.6 56 13.3 35 35 SE 22 35 29.63 1003 10 16 0.00 0.00
1:53 am 01:53 Clear 85 29.4 57 13.9 39 39 SE 22 35 29.62 1003 10 16 0.00 0.00
2:53 am 02:53 Clear 84 28.9 58 14.4 41 41 SSE 20 31 29.60 1002 10 16 0.00 0.00
3:53 am 03:53 Clear 83 28.3 58 14.4 43 43 SSE 21 33 29.60 1002 10 16 0.00 0.00
4:53 am 04:53 Clear 82 27.8 58 14.4 44 44 SSE 18 30 29.60 1002 10 16 0.00 0.00
6:00 am 06:00 Clear 81 27.2 58 14.4 45 45 ESE 20 31 29.62 1003 10 16 0.00 0.00
6:53 am 06:53 Sunny 79 26.1 61 16.1 54 54 ESE 18 30 29.65 1004 10 16 0.00 0.00
7:53 am 07:53 Sunny 78 25.6 65 18.3 64 64 SE 24 39 29.65 1004 10 16 0.00 0.00
8:53 am 08:53 Sunny 80 26.7 65 18.3 60 60 SE 23 37 29.67 1005 10 16 0.00 0.00
9:53 am 09:53 Sunny 83 28.3 64 17.8 53 53 SE 22 35 29.67 1005 10 16 0.00 0.00
10:53 am 10:53 Sunny 86 30 64 17.8 48 48 SE 21 33 29.66 1004 10 16 0.00 0.00
11:53 am 11:53 Sunny 90 32.2 64 17.8 42 42 SSE 18 30 29.65 1004 10 16 0.00 0.00
12:53 pm 12:53 Sunny 93 33.9 62 16.7 36 36 SE 16 26 29.64 1004 10 16 0.00 0.00
1:53 pm 13:53 Sunny 96 35.6 58 14.4 28 28 ESE 7 11 29.60 1003 10 16 0.00 0.00
2:53 pm 14:53 Sunny 100 37.8 58 14.4 25 25 SSE 7 11 29.57 1002 10 16 0.00 0.00
3:53 pm 15:53 Sunny 103 39.4 54 12.2 20 20 S 10 17 29.55 1001 10 16 0.00 0.00
4:53 pm 16:53 Sunny 105 40.6 54 12.2 19 19 SE 10 17 29.52 1000 10 16 0.00 0.00
5:53 pm 17:53 Sunny 106 41.1 54 12.2 18 18 SE 21 33 29.49 999 10 16 0.00 0.00
6:53 pm 18:53 Sunny 103 39.4 58 14.4 23 23 SE 24 39 29.48 998 10 16 0.00 0.00
7:53 pm 19:53 Sunny 100 37.8 57 13.9 24 24 SE 26 43 29.48 998 10 16 0.00 0.00
8:53 pm 20:53 Sunny 96 35.6 57 13.9 27 27 SE 25 41 29.50 999 10 16 0.00 0.00
9:53 pm 21:53 Clear 93 33.9 59 15 32 32 SE 26 43 29.53 1000 10 16 0.00 0.00
10:53 pm 22:53 Clear 91 32.8 59 15 34 34 SE 22 35 29.56 1001 10 16 0.00 0.00
11:53 pm 23:53 Clear 89 31.7 58 14.4 35 35 SE 21 33 29.57 1002 10 16 0.00 0.00

Powered by Vaisala Xweather